FENGYUN 1C DEB, 30128

Orbit data source: Space-Track

FENGYUN 1C DEB, 30128 is space debris in SSO originally from a launch on Mon, 10 May 1999 UTC launched from the Taiyaun Space Center, China (TSC). Fengyun 1C debris stems from the Chinese weather satellite Fengyun-1C, which was intentionally destroyed by a Chinese anti-satellite missile in 2007. This event dramatically increased the amount of space debris, with thousands of trackable fragments posing hazards to satellites and human spaceflight. The Fengyun 1C debris cloud has become a focal point in discussions about space sustainability and the need for international regulations to prevent the creation of new debris.

Loading next visibility...
Identifier
30128, 1999-025SH
Orbit
SSO
Country
Flag of CNCN / PRC
Related business
Manufacturer
Unknown
Mission
Spacecraft
Bus & Motor
Unknown
Mass
Unknown
Launch date (UTC)
1999-05-10 (27 years ago)
Launch vehicle
Unknown
Launch site
Taiyaun Space Center, China (TSC)
Object type
Payload
Rocket body
Debris
Shape & HBR
Unknown shape, 0.1 m
Radar Cross Section
Small (<0.1 m²)

Expand to show TLE details & history
Last TLE update: 1 day ago

TLE from 1 day ago
0 FENGYUN 1C DEB
1 30128U 99025SH  26106.65981714  .00006570  00000-0  16050-2 0  9997
2 30128  96.9885  88.8059 0104891  90.7679 323.6243 14.49520950991191
Epoch: 2026-04-16T15:50Z
TLE epoch observation values (Epoch: 2026-04-16T15:50:08.200Z)
Latitude
53.19893°
Longitude
-2.91151°
Altitude
676.198 km
Speed
7.555 km/s
True Right ascension
05h 17m 42s
True Declination
53° 01' 55"
Sunlit
Object was in daylight at epoch
Visualization orbit readout
Latitude
Unknown
Longitude
Unknown
Altitude
Unknown
Speed
Unknown
Apparent Right ascension
Unknown
Apparent Declination
Unknown
Sunlit
N/A
Visualization observer readout
Local Sidereal Time
02:17:17
Azimuth
Unknown
Elevation
Unknown
Doppler factor
Unknown
Orbital elements
Apogee altitude
798.755 km
Perigee altitude
649.759 km
Semi-major axis
7,102.394 km
Eccentricity
0.01049
Inclination
96.9885°
RAAN
88.8059°
Arg. of periapsis
90.7679°
True anomaly
322.90386°
Mean anomaly
323.6243°
Eccentric anomaly
323.26484°
Mean motion
3.62607 °/min
Orbital period
99.28 mins
BSTAR
0.001605
Loading maneuver chart data...
Computing Atmospheric mass density...
Loading historical data...
Loading historical data...
Loading historical data...
Loading historical data...
Loading historical data...
Loading historical data...
Loading historical data...

Documentation

Showing up to 5 results
|